This is the latest recevied weather packets stored in our database for station/object DC4XK-10. If no packets are shown the sender has not sent any weather packets the latest 10 day(s).
| Time | Temp. | Humidity | Pressure | Rain* | Wind** | Luminosity | Snow |
|---|---|---|---|---|---|---|---|
| 1777975130 | 13.33° C | 71% | 1010.2 hPa | 0 mm | 0 m/s | - | - |
| 1777974531 | 13.33° C | 74% | 1010.2 hPa | 0 mm | 0.45 m/s, 326° | - | - |
| 1777973930 | 13.89° C | 71% | 1010.3 hPa | 0 mm | 0.89 m/s, 27° | - | - |
| 1777973332 | 12.78° C | 74% | 1010.2 hPa | 0 mm | 1.34 m/s, 53° | - | - |
| 1777972731 | 12.22° C | 79% | 1010.3 hPa | 0 mm | 1.34 m/s, 295° | - | - |
| 1777972130 | 11.67° C | 79% | 1010.3 hPa | 0 mm | 0 m/s | - | - |
| 1777971533 | 11.67° C | 79% | 1010.3 hPa | 0 mm | 0.89 m/s, 331° | - | - |
| 1777970930 | 11.67° C | 80% | 1010 hPa | 0 mm | 0.45 m/s, 306° | - | - |
| 1777970330 | 11.67° C | 80% | 1010.1 hPa | 0 mm | 0 m/s | - | - |
| 1777969733 | 11.11° C | 82% | 1010.1 hPa | 0 mm | 0.45 m/s, 49° | - | - |
| 1777969131 | 11.11° C | 81% | 1010.1 hPa | 0 mm | 0 m/s | - | - |
| 1777968531 | 11.11° C | 84% | 1010.3 hPa | 0 mm | 0.89 m/s, 327° | - | - |
| 1777967933 | 10.56° C | 84% | 1010.1 hPa | 0 mm | 0.45 m/s, 68° | - | - |
| 1777967331 | 11.11° C | 84% | 1010 hPa | 0 mm | 0 m/s | - | - |
| 1777966730 | 10.56° C | 85% | 1010.3 hPa | 0 mm | 0.89 m/s, 317° | - | - |
| 1777966131 | 10.56° C | 86% | 1010.2 hPa | 0 mm | 0 m/s | - | - |
| 1777965530 | 10.56° C | 86% | 1010.2 hPa | 0 mm | 0 m/s | - | - |
| 1777964931 | 10.56° C | 87% | 1010.2 hPa | 0 mm | 0 m/s | - | - |
| 1777964331 | 10.56° C | 86% | 1010.3 hPa | 0 mm | 0 m/s | - | - |
| 1777963730 | 10.56° C | 87% | 1010.1 hPa | 0 mm | 0 m/s | - | - |
| 1777963131 | 10° C | 87% | 1010.4 hPa | 0 mm | 1.34 m/s, 25° | - | - |
| 1777962530 | 10° C | 88% | 1010.2 hPa | 0 mm | 0 m/s | - | - |
| 1777961931 | 9.44° C | 89% | 1010.1 hPa | 0 mm | 1.34 m/s, 22° | - | - |
| 1777961332 | 9.44° C | 90% | 1010.1 hPa | 0 mm | 0.45 m/s, 312° | - | - |
| 1777960730 | 9.44° C | 91% | 1010.3 hPa | 0 mm | 0 m/s | - | - |
* Rain latest hour (hover to see other rain measurements)
** Current wind speed in m/s (hover to see current wind gust speed)